Location: Bas-Clignon
(44.2000°N, 6.6333°E)
Time: 01:54:52
(UTC+00:00)

Lacrosse 5 - Pass Details

Date: 03 February 2023
Orbit: 714 x 724 km, 57.0° (Epoch: 09 March)

Event Time Altitude Azimuth Distance (km) Brightness Sun altitude
Rises 20:10:08 0° 281° (W) 3,137 6.2 -36.8°
Reaches altitude 10° 20:13:03 10° 297° (WNW) 2,218 5.1 -37.3°
Enters shadow 20:15:03 18° 318° (NW) 1,750 4.3 -37.6°
